Content
SEND FEEDBACK

Daily
Averages
Monthly
Summary
Germany

BADEN BADEN, GERMANY


Home > Europe > Germany
Elevation: 420 feet     Latitude: 48 46N     Longitude: 008 06E

WEATHER
 
SELECT A DAY
Number of Records: 98,191;   Date Range: 7/5/96 - 12/27/14
 
SHARE

PRINT THIS DATA

[ ← Previous Day ]
WEATHER ALMANAC - JULY 22, 2014
[ Next Day → ]
[ °C ]   °F
Weather ElementAverageHighLow
Temperature69.9 °F77 °F (3:50 pm)64.4 °F (8:50 am)
Dewpoint64.3 °F66.2 °F (7:50 pm)60.8 °F (10:20 am)
Humidity82.8 %94 % (4:57 pm)65 % (12:50 pm)
Barometer29.93 in30.01 in (10:20 pm)29.89 in (9:20 am)
Wind Speed5.5 mph11.5 mph (7:20 am)
Weather ElementAverage
Visibility4.3 mi
Wind DirectionE (90 °)

Weather ElementTotal
Precipitation---
Cooling Degree Days5.7 (Base 65)
Growing Degree Days20.7 (Base 50)
Averaged from 43 records on July 22, 2014
WEATHER CONDITIONS BREAKOUT
WIND DIRECTION BREAKOUT
WEATHER BY HOUR - JULY 22, 2014
[ °C ]   °F
Local TimeTemperatureDewpointHumidityBarometerVisibilityWind DirectionWind SpeedGust SpeedPrecipitationEventsConditions
2:20 AM64.4 °F62.6 °F94 %29.92 in4.3 miSouth (190°)3.5 mphMostly Cloudy
4:50 AM64.4 °F62.6 °F94 %29.89 in6.2 miSW (220°)5.8 mphMostly Cloudy
5:20 AM64.4 °F62.6 °F94 %29.89 in3.7 miVariable3.5 mphRainRain Showers
5:26 AM64.4 °F60.8 °F88 %29.89 inVariable1.2 mphRainRain Showers
5:31 AM64.4 °F62.6 °F94 %29.89 in1.2 miVariable2.3 mphRainHeavy Rain Showers
5:38 AM64.4 °F60.8 °F88 %29.89 inSW (220°)4.6 mphRainRain Showers
5:50 AM64.4 °F60.8 °F88 %29.89 in3.7 miSSW (200°)4.6 mphRainLight Rain Showers
5:59 AM64.4 °F62.6 °F94 %29.89 in2.8 miVariable3.5 mphRainRain Showers
6:14 AM64.4 °F62.6 °F94 %29.89 inSW (230°)4.6 mphRainLight Rain Showers
6:20 AM64.4 °F62.6 °F94 %29.89 inSW (230°)4.6 mphRainLight Rain Showers
6:34 AM64.4 °F62.6 °F94 %29.89 in2.5 miVariable3.5 mphRainRain Showers
6:50 AM64.4 °F62.6 °F94 %29.89 in2.8 miWest (280°)4.6 mphRainRain Showers
7:20 AM64.4 °F62.6 °F94 %29.89 in3.1 miNW (310°)4.6 mphRainLight Rain Showers
7:50 AM66.2 °F62.6 °F88 %29.89 in3.1 miNNW (340°)5.8 mphRainRain Showers
8:20 AM68.0 °F64.4 °F88 %29.89 in2.8 miNorth (10°)5.8 mphRainRain Showers
8:50 AM68.0 °F64.4 °F88 %29.92 in2.8 miNNE (20°)8.1 mphRainLight Rain Showers
9:20 AM68.0 °F64.4 °F88 %29.92 in3.7 miNorth (10°)9.2 mphRainLight Rain Showers
9:50 AM69.8 °F64.4 °F83 %29.92 in3.7 miNorth (10°)8.1 mphRainLight Rain Showers
10:20 AM69.8 °F64.4 °F83 %29.92 in3.7 miNNE (20°)8.1 mphRainLight Rain Showers
10:50 AM69.8 °F64.4 °F83 %29.92 in4.3 miNNE (20°)11.5 mphMostly Cloudy
11:20 AM71.6 °F64.4 °F78 %29.92 in4.3 miNNE (20°)10.4 mphMostly Cloudy
11:50 AM69.8 °F64.4 °F83 %29.95 in4.3 miNNE (30°)9.2 mphMostly Cloudy
12:20 PM71.6 °F64.4 °F78 %29.95 in5.0 miNNE (20°)8.1 mphMostly Cloudy
12:50 PM71.6 °F64.4 °F78 %29.95 in5.0 miNorth (10°)9.2 mphMostly Cloudy
1:20 PM71.6 °F66.2 °F83 %29.95 in5.0 miNorth (10°)8.1 mphMostly Cloudy
1:50 PM71.6 °F66.2 °F83 %29.95 in4.3 miNorth (10°)9.2 mphMostly Cloudy
2:20 PM73.4 °F66.2 °F78 %29.95 in5.0 miNorth (10°)9.2 mphMostly Cloudy
2:50 PM73.4 °F66.2 °F78 %29.95 in5.0 miNorth (10°)8.1 mphMostly Cloudy
3:20 PM75.2 °F64.4 °F69 %29.95 in5.0 miNE (40°)6.9 mphMostly Cloudy
3:50 PM77.0 °F66.2 °F69 %29.95 in5.0 miNNE (30°)9.2 mphMostly Cloudy
4:20 PM77.0 °F64.4 °F65 %29.95 in5.6 miENE (60°)5.8 mphScattered Clouds
4:50 PM77.0 °F66.2 °F69 %29.95 in5.6 miNorth (350°)5.8 mphMostly Cloudy
5:20 PM75.2 °F66.2 °F73 %29.95 in6.2 miNW (320°)5.8 mphMostly Cloudy
5:50 PM77.0 °F66.2 °F69 %29.95 in6.2 miNNW (330°)4.6 mphMostly Cloudy
6:20 PM75.2 °F66.2 °F73 %29.95 in6.2 miNW (310°)4.6 mphMostly Cloudy
6:50 PM75.2 °F64.4 °F69 %29.95 inVariable3.5 mphClear
7:20 PM75.2 °F66.2 °F73 %29.95 inVariable3.5 mphClear
7:50 PM75.2 °F66.2 °F73 %29.95 inVariable1.2 mphClear
8:20 PM73.4 °F66.2 °F78 %29.98 inVariable1.2 mphClear
8:50 PM73.4 °F66.2 °F78 %29.98 inVariable3.5 mphClear
9:20 PM71.6 °F66.2 °F83 %29.98 inVariable2.3 mphClear
9:50 PM69.8 °F66.2 °F88 %29.98 inCalmClear
10:20 PM68.0 °F64.4 °F88 %30.01 in4.3 miCalmClear
Hourly data recorded from EDSB, located miles away from Baden Baden, Germany







STORIES FROM OUR PARTNERS